Olympia, WA
on Friday, January 11, 2013

Friday
Previous Day Next Day
Daily Summary
 ActualAverageRecord
Temperature
Mean Temperature °F 40°F  
Max Temperature 39°F 45°F 59°F (1983)
Min Temperature 23°F 34°F 6°F (1963)
Degree Days
Heating Degree Days 34 25  
Month to date heating degree days 293 285  
Since 1 July heating degree days 2456 2555  
Cooling Degree Days 0 0  
Month to date cooling degree days 0 0  
Year to date cooling degree days 0 0  
Moisture
Dew Point 27°F   
Average Humidity 77    
Maximum Humidity 100    
Minimum Humidity 54    
Precipitation
Precipitation 0.00 in 0.26 in 1.16 in (1953)
Month to date precipitation 2.76 2.83  
Year to date precipitation 2.76 2.83  
Wind
Wind Speed 2 mph   
Max Wind Speed 12 mph   
Max Gust Speed 14 mph   
Visibility 4 miles   
Events Fog   

Key: T is trace of precipitation, MM is missing value
Source: NWS Daily Summary
Time(PST)TemperatureDew PointHumidity Pressure Visibility Wind DirectionWind SpeedGust SpeedPrecipitationEvents Conditions
12:06 AM 32.0°F 32.0°F 100% 30.13 in 1.8 miles Calm Calm - N/A   Mostly Cloudy
12:10 AM 32.0°F 30.9°F 96% 30.13 in 1.2 miles Calm Calm - N/A   Mostly Cloudy
12:21 AM 32.0°F 32.0°F 100% 30.13 in 0.5 miles Calm Calm - N/A Fog Fog
12:34 AM 32.0°F 30.9°F 96% 30.12 in 0.2 miles Calm Calm - N/A Fog Fog
12:54 AM 30.9°F 30.9°F 100% 30.14 in 0.2 miles Calm Calm - N/A Fog Light Freezing Fog
1:45 AM 30.9°F 30.9°F 100% 30.14 in 0.2 miles Calm Calm - N/A Fog Light Freezing Fog
1:54 AM 30.9°F 30.9°F 100% 30.15 in 0.2 miles Calm Calm - N/A Fog Light Freezing Fog
2:09 AM 30.9°F 30.0°F 96% 30.14 in 0.2 miles Calm Calm - N/A Fog Light Freezing Fog
2:25 AM 30.0°F 28.9°F 96% 30.15 in 0.2 miles Calm Calm - N/A Fog Light Freezing Fog
2:36 AM 28.9°F 28.9°F 100% 30.15 in 0.5 miles Calm Calm - N/A Fog Light Freezing Fog
2:49 AM 30.2°F 28.4°F 93% 30.15 in 0.5 miles Calm Calm - N/A Fog Light Freezing Fog
2:54 AM 28.9°F 28.0°F 96% 30.16 in 0.2 miles SE 3.5 mph - N/A Fog Light Freezing Fog
3:03 AM 28.0°F 28.0°F 100% 30.15 in 0.2 miles Calm Calm - N/A Fog Light Freezing Fog
3:15 AM 28.0°F 28.0°F 100% 30.15 in 0.5 miles Calm Calm - N/A Fog Light Freezing Fog
3:23 AM 28.0°F 27.0°F 96% 30.15 in 0.2 miles SE 3.5 mph - N/A Fog Light Freezing Fog
3:54 AM 28.0°F 26.1°F 92% 30.17 in 0.2 miles Calm Calm - N/A Fog Light Freezing Fog
4:54 AM 27.0°F 26.1°F 96% 30.18 in 0.2 miles Calm Calm - N/A Fog Light Freezing Fog
5:12 AM 27.0°F 27.0°F 100% 30.17 in 0.5 miles Calm Calm - N/A Fog Light Freezing Fog
5:22 AM 28.0°F 27.0°F 96% 30.17 in 0.2 miles Calm Calm - N/A Fog Light Freezing Fog
5:54 AM 28.0°F 27.0°F 96% 30.19 in 0.2 miles Calm Calm - N/A Fog Light Freezing Fog
6:54 AM 28.0°F 26.1°F 92% 30.22 in 0.2 miles Calm Calm - N/A Fog Light Freezing Fog
7:35 AM 27.0°F 24.1°F 89% 30.23 in 0.5 miles Calm Calm - N/A Fog Light Freezing Fog
7:45 AM 26.1°F 23.0°F 88% 30.24 in 0.5 miles Calm Calm - N/A Fog Light Freezing Fog
7:54 AM 26.1°F 23.0°F 88% 30.25 in 0.5 miles Calm Calm - N/A Fog Light Freezing Fog
8:09 AM 26.1°F 23.0°F 88% 30.24 in 10.0 miles South 3.5 mph - N/A Fog Shallow Fog
8:54 AM 28.9°F 26.1°F 89% 30.27 in 10.0 miles Calm Calm - N/A Fog Shallow Fog
9:02 AM 28.9°F 26.1°F 89% 30.26 in 5.0 miles South 3.5 mph - N/A Fog Shallow Fog
9:54 AM 30.9°F 30.0°F 96% 30.29 in 10.0 miles Calm Calm - N/A   Clear
10:54 AM 33.1°F 28.0°F 82% 30.30 in 10.0 miles NE 4.6 mph - N/A   Clear
11:54 AM 37.4°F 26.6°F 65% 30.30 in 10.0 miles NE 6.9 mph - N/A   Partly Cloudy
12:54 PM 37.9°F 23.0°F 55% 30.30 in 10.0 miles ENE 8.1 mph - N/A   Clear
1:54 PM 39.0°F 25.0°F 57% 30.31 in 10.0 miles East 8.1 mph - N/A   Partly Cloudy
1:56 PM 37.9°F 24.1°F 57% 30.30 in 10.0 miles East 8.1 mph - N/A   Scattered Clouds
2:54 PM 37.9°F 25.0°F 60% 30.32 in 10.0 miles ESE 6.9 mph - N/A   Overcast
3:54 PM 35.1°F 26.1°F 70% 30.32 in 10.0 miles SE 3.5 mph - N/A   Mostly Cloudy
4:54 PM 33.1°F 27.0°F 78% 30.33 in 10.0 miles Calm Calm - N/A   Partly Cloudy
5:54 PM 30.0°F 26.1°F 85% 30.33 in 10.0 miles East 4.6 mph - N/A   Clear
6:54 PM 26.1°F 24.1°F 92% 30.34 in 9.0 miles Calm Calm - N/A   Clear
7:54 PM 26.1°F 25.0°F 96% 30.32 in 7.0 miles SE 4.6 mph - N/A   Clear
8:54 PM 27.0°F 25.0°F 92% 30.33 in 6.0 miles Calm Calm - N/A   Clear
9:54 PM 26.1°F 24.1°F 92% 30.32 in 5.0 miles Calm Calm - N/A   Clear
10:54 PM 26.1°F 25.0°F 96% 30.32 in 5.0 miles Calm Calm - N/A   Clear
11:54 PM 24.1°F 21.9°F 91% 30.32 in 6.0 miles Calm Calm - N/A   Clear
Moon Phase
Jan. 11 Jan. 18 Jan. 26 Feb. 03 Feb. 10
Sunrise:07:54 AM (PST) Moon Rise:07:29 AM (PST)1/11
Sunset:04:44 PM (PST) Moon Set:05:13 PM (PST)1/11

Copyright © 2014 The Weather Underground, Inc.